Content
SEND FEEDBACK

Daily
Averages
Monthly
Summary
Cuba

GUANABACOA, CUBA


Home > Caribbean > Cuba
Elevation: 164 feet     Latitude: 23 10N     Longitude: 082 21W

WEATHER
 
SELECT A DAY
Number of Records: 143,806;   Date Range: 6/30/96 - 12/17/14
 
SHARE

PRINT THIS DATA

[ ← Previous Day ]
WEATHER ALMANAC - MAY 16, 2014
[ Next Day → ]
[ °C ]   °F
Weather ElementAverageHighLow
Temperature74.3 °F77 °F (2:55 pm)71.6 °F (1:55 am)
Dewpoint69.2 °F71.6 °F (8:20 am)64.4 °F (9:55 pm)
Humidity83.9 %94 % (3:55 am)66 % (11:00 pm)
Barometer30.02 in30.05 in (11:00 am)29.98 in (2:55 am)
Wind Speed8.5 mph16.1 mph (7:55 pm)
Weather ElementAverage
Visibility4.3 mi
Wind DirectionESE (126.7 °)

Weather ElementTotal
Precipitation---
Cooling Degree Days9.3 (Base 65)
Growing Degree Days24.3 (Base 50)
Averaged from 37 records on May 16, 2014
WEATHER CONDITIONS BREAKOUT
WIND DIRECTION BREAKOUT
WEATHER BY HOUR - MAY 16, 2014
[ °C ]   °F
Local TimeTemperatureDewpointHumidityBarometerVisibilityWind DirectionWind SpeedGust SpeedPrecipitationEventsConditions
1:55 AM71.6 °F68.0 °F88 %30.01 in5.0 miWest (260°)3.5 mphScattered Clouds
2:55 AM71.6 °F68.0 °F88 %29.98 in5.0 miWest (270°)2.3 mphMostly Cloudy
3:55 AM71.6 °F69.8 °F94 %29.98 in5.0 miNNW (340°)2.3 mphMostly Cloudy
4:55 AM71.6 °F69.8 °F94 %29.98 in5.0 miVariable1.2 mphMostly Cloudy
4:58 AM73.4 °F69.8 °F88 %29.98 in3.1 miSouth (170°)2.3 mphRainRain
5:00 AM72.0 °F69.0 °F88 %29.99 in5.0 miCalmHaze
5:55 AM73.4 °F69.8 °F88 %29.98 in5.0 miWest (270°)2.3 mphRainLight Rain
6:55 AM73.4 °F69.8 °F88 %29.98 in3.1 miVariable8.1 mphRainRain
7:55 AM73.4 °F69.8 °F88 %30.01 in3.1 miVariable2.3 mphRainRain
8:20 AM75.2 °F71.6 °F89 %30.01 in3.7 miNNE (30°)4.6 mphRainLight Rain
8:55 AM75.2 °F71.6 °F89 %30.04 in4.3 miNorth (10°)5.8 mphRainLight Rain
9:19 AM73.4 °F69.8 °F88 %30.04 in1.9 miNorth (360°)10.4 mphRainRain
9:27 AM73.4 °F71.6 °F94 %30.04 in1.2 miNorth (350°)10.4 mphRainHeavy Rain
9:55 AM75.2 °F71.6 °F89 %30.04 in2.5 miNorth (10°)6.9 mphRainHeavy Rain
10:07 AM75.2 °F71.6 °F89 %30.04 in1.2 miNNE (30°)12.7 mphRainHeavy Rain
10:40 AM73.4 °F71.6 °F94 %30.04 in1.9 miNorth (360°)12.7 mphRainHeavy Rain
10:55 AM73.4 °F71.6 °F94 %30.04 in3.7 miNorth (360°)10.4 mphRainLight Rain
11:00 AM74.0 °F71.0 °F86 %30.05 in4.0 miNorth (10°)8.9 mphRainLight Rain
11:55 AM75.2 °F69.8 °F83 %30.04 in5.0 miNorth (10°)5.8 mphRainLight Rain
12:14 PM75.2 °F69.8 °F83 %30.04 in2.5 miNorth (10°)6.9 mphRainRain
12:45 PM75.2 °F69.8 °F83 %30.04 in3.7 miNorth (360°)8.1 mphRainLight Rain
12:55 PM75.2 °F69.8 °F83 %30.04 in4.3 miNorth (360°)9.2 mphRainLight Rain
1:55 PM75.2 °F68.0 °F78 %30.04 in5.6 miNorth (360°)10.4 mphOvercast
2:55 PM77.0 °F68.0 °F74 %30.01 in5.6 miNorth (10°)12.7 mphOvercast
3:55 PM77.0 °F68.0 °F74 %30.01 in5.6 miNorth (10°)13.8 mphOvercast
4:09 PM75.2 °F68.0 °F78 %30.01 in2.5 miNorth (360°)12.7 mphRainRain
4:31 PM75.2 °F69.8 °F83 %29.98 in5.0 miNNE (30°)15.0 mphOvercast
4:55 PM75.2 °F69.8 °F83 %29.98 in5.6 miNNE (30°)15.0 mphOvercast
5:00 PM75.0 °F70.0 °F79 %29.99 in6.0 miNNE (30°)13.4 mphRainLight Rain
5:55 PM75.2 °F69.8 °F83 %29.98 in4.3 miNNE (30°)8.1 mphRainLight Rain
6:55 PM75.2 °F68.0 °F78 %29.98 in5.6 miNNE (30°)13.8 mphMostly Cloudy
7:55 PM75.2 °F68.0 °F78 %30.01 in5.6 miNNE (20°)16.1 mphOvercast
8:55 PM75.2 °F68.0 °F78 %30.01 in5.6 miNorth (10°)13.8 mphMostly Cloudy
9:55 PM75.2 °F64.4 °F69 %30.04 in5.6 miNorth (10°)11.5 mphMostly Cloudy
10:55 PM73.4 °F64.4 °F73 %30.04 in5.6 miNorth (10°)9.2 mphMostly Cloudy
11:00 PM74.0 °F65.0 °F66 %30.05 in6.0 miNNE (20°)6.7 mphHaze
11:55 PM73.4 °F68.0 °F83 %30.04 in5.6 miNNE (30°)6.9 mphMostly Cloudy
Hourly data recorded from MUHA, located miles away from Guanabacoa, Cuba







STORIES FROM OUR PARTNERS